Weather History for Milas, Turkey

Change the Weather History Date:

Tuesday, September 4, 2012

  Actual Average (LGKO) Record (LGKO)
Temperature  
Mean Temperature 74 °F -  
Max Temperature 87 °F 81 °F 89 °F (2000)
Min Temperature 62 °F 68 °F 35 °F (2000)
Cooling Degree Days 10    
Growing Degree Days 24 (Base 50)    
Moisture  
Dew Point 63 °F    
Average Humidity 69    
Maximum Humidity 88    
Minimum Humidity 38    
Precipitation  
Precipitation 0.00 in - - ()
Sea Level Pressure  
Sea Level Pressure 29.81 in    
Wind  
Wind Speed 5 mph ()    
Max Wind Speed 15 mph    
Max Gust Speed -    
Averages and records for this station are not official NWS values.
T = Trace of Precipitation, MM = Missing Value Source: Averaged Metar Reports

Daily Weather History Graph

Daily Weather History Graph

Search for Another Location

Airport:

Trip Planner

Search our weather history database for the weather conditions in past years. The results will help you decide how hot, cold, wet, or windy it might be!

Date:

Astronomy

Sep. 04, 2012 Rise Set
Actual Time 6:42 AM EEST 7:33 PM EEST
Civil Twilight 6:15 AM EEST 7:59 PM EEST
Nautical Twilight 5:44 AM EEST 8:31 PM EEST
Astronomical Twilight 5:12 AM EEST 9:03 PM EEST
Moon 9:22 PM EEST (9/4) 10:23 AM EEST (9/4)
Length of Visible Light 13h 43m
Length of Day
12h 50m
Waning Gibbous, 86% of the Moon is Illuminated
Sep 4
Waning Gibbous
Sep 8
Last Quarter
Sep 16
New
Sep 22
First Quarter
Sep 30
Full

Hourly Weather History & Observations

Time (EEST) Temp. Heat Index Dew Point Humidity Pressure Visibility Wind Dir Wind Speed Gust Speed Precip Events Conditions
12:20 AM 68.0 °F - 62.6 °F 83% 29.83 in - East 2.3 mph - N/A   Clear
12:50 AM 68.0 °F - 62.6 °F 83% 29.83 in - Calm Calm - N/A   Clear
1:20 AM 66.2 °F - 62.6 °F 88% 29.83 in - Calm Calm - N/A   Clear
1:50 AM 66.2 °F - 62.6 °F 88% 29.83 in - Variable 2.3 mph - N/A   Clear
2:20 AM 68.0 °F - 62.6 °F 83% 29.83 in - Calm Calm - N/A   Clear
2:50 AM 68.0 °F - 62.6 °F 83% 29.83 in - SSE 3.5 mph - N/A   Clear
3:20 AM 64.4 °F - 60.8 °F 88% 29.83 in - SE 3.5 mph - N/A   Clear
3:50 AM 66.2 °F - 62.6 °F 88% 29.83 in - Variable 2.3 mph - N/A   Clear
4:20 AM 64.4 °F - 60.8 °F 88% 29.83 in - North 1.2 mph - N/A   Clear
4:50 AM 62.6 °F - 59.0 °F 88% 29.80 in - East 4.6 mph - N/A   Clear
5:20 AM 64.4 °F - 60.8 °F 88% 29.80 in - SE 2.3 mph - N/A   Clear
5:50 AM 64.4 °F - 60.8 °F 88% 29.80 in - Calm Calm - N/A   Clear
6:20 AM 62.6 °F - 59.0 °F 88% 29.80 in - ENE 2.3 mph - N/A   Clear
6:50 AM 62.6 °F - 59.0 °F 88% 29.80 in - Variable 2.3 mph - N/A   Clear
7:20 AM 64.4 °F - 60.8 °F 88% 29.80 in - ESE 3.5 mph - N/A   Clear
7:50 AM 68.0 °F - 62.6 °F 83% 29.80 in - Variable 1.2 mph - N/A   Clear
8:20 AM 71.6 °F - 64.4 °F 78% 29.80 in - Variable 2.3 mph - N/A   Clear
8:50 AM 73.4 °F - 64.4 °F 73% 29.80 in - NW 3.5 mph - N/A   Clear
9:20 AM 77.0 °F - 66.2 °F 69% 29.80 in - WNW 5.8 mph - N/A   Clear
9:50 AM 80.6 °F 81.8 °F 62.6 °F 54% 29.80 in - West 8.1 mph - N/A   Clear
10:20 AM 82.4 °F 83.9 °F 64.4 °F 54% 29.80 in - WSW 6.9 mph - N/A   Clear
10:50 AM 84.2 °F 85.0 °F 62.6 °F 48% 29.80 in - WSW 5.8 mph - N/A   Clear
11:20 AM 86.0 °F 86.6 °F 62.6 °F 45% 29.80 in - Variable 5.8 mph - N/A   Clear
11:50 AM 87.8 °F 88.5 °F 62.6 °F 43% 29.80 in - WSW 10.4 mph - N/A   Clear
12:20 PM 86.0 °F 86.1 °F 60.8 °F 43% 29.80 in - West 11.5 mph - N/A   Clear
12:50 PM 87.8 °F 87.6 °F 60.8 °F 40% 29.80 in - West 13.8 mph - N/A   Clear
1:20 PM 86.0 °F 86.6 °F 62.6 °F 45% 29.80 in - West 12.7 mph - N/A   Clear
1:50 PM 87.8 °F 87.6 °F 60.8 °F 40% 29.80 in - West 13.8 mph - N/A   Clear
2:20 PM 87.8 °F 87.1 °F 59.0 °F 38% 29.80 in - West 15.0 mph - N/A   Clear
2:50 PM 87.8 °F 88.5 °F 62.6 °F 43% 29.80 in - West 12.7 mph - N/A   Clear
3:20 PM 86.0 °F 86.6 °F 62.6 °F 45% 29.80 in - WSW 15.0 mph - N/A   Clear
3:50 PM 84.2 °F 85.6 °F 64.4 °F 51% 29.80 in - West 13.8 mph - N/A   Clear
4:20 PM 84.2 °F 85.6 °F 64.4 °F 51% 29.80 in - West 13.8 mph - N/A   Clear
4:50 PM 82.4 °F 83.9 °F 64.4 °F 54% 29.80 in - West 13.8 mph - N/A   Clear
5:20 PM 82.4 °F 83.9 °F 64.4 °F 54% 29.80 in - West 15.0 mph - N/A   Clear
5:50 PM 82.4 °F 83.4 °F 62.6 °F 51% 29.80 in - WSW 15.0 mph - N/A   Clear
6:20 PM 80.6 °F 82.3 °F 64.4 °F 58% 29.80 in - WSW 12.7 mph - N/A   Clear
6:50 PM 80.6 °F 82.3 °F 64.4 °F 58% 29.80 in - WSW 12.7 mph - N/A   Clear
7:20 PM 78.8 °F - 64.4 °F 61% 29.80 in - WSW 9.2 mph - N/A   Clear
7:50 PM 77.0 °F - 66.2 °F 69% 29.83 in - SSW 8.1 mph - N/A   Clear
8:20 PM 75.2 °F - 68.0 °F 78% 29.83 in - SSW 6.9 mph - N/A   Clear
8:50 PM 75.2 °F - 68.0 °F 78% 29.83 in - SSW 5.8 mph - N/A   Clear
9:20 PM 75.2 °F - 68.0 °F 78% 29.86 in - South 4.6 mph - N/A   Clear
9:50 PM 73.4 °F - 68.0 °F 83% 29.83 in - South 3.5 mph - N/A   Clear
10:20 PM 73.4 °F - 68.0 °F 83% 29.83 in - South 3.5 mph - N/A   Clear
10:50 PM 71.6 °F - 66.2 °F 83% 29.83 in - ESE 3.5 mph - N/A   Clear
11:20 PM 69.8 °F - 66.2 °F 88% 29.83 in - SE 3.5 mph - N/A   Clear
11:50 PM 68.0 °F - 64.4 °F 88% 29.83 in - SE 3.5 mph - N/A   Clear